659  
ASUS41 KBTV 090210  
RWRBTV  
VERMONT REGIONAL WEATHER ROUNDUP  
NATIONAL WEATHER SERVICE BURLINGTON VT  
900 PM EST THU DEC 08 2022  
 
NOTE: "FAIR" INDICATES FEW OR NO CLOUDS BELOW 12,000 FEET WITH NO  
SIGNIFICANT WEATHER AND/OR S TO VISIBILITY
.  
 
* THESE REPORTS ARE NOT UNDER NWS QUALITY CONTROL AND/OR DO NOT  
REPORT WEATHER SUCH AS PRECIPITATION AND FOG.
 
 
VTZ001>019-090300-  
_____VERMONT_____  
 
 
CITY SKY/WX TMP DP RH WIND PRES REMARKS
 
BURLINGTON PTCLDY 33 27 78 CALM 30.33R  
MONTPELIER CLEAR 30 22 72 CALM 30.31S  
MORRISVILLE CLEAR 27 23 85 CALM 30.31S  
ST. JOHNSBURY* N/A 29 23 78 MISG 30.28R  
LYNDONVILLE* N/A 28 22 78 NW6 30.28S WCI 22  
MIDDLEBURY* FAIR 32 27 80 CALM 30.31R  
RUTLAND* CLEAR 32 25 75 CALM 30.29R  
SPRINGFIELD CLOUDY 37 24 59 N9G21 30.28R WCI 30  
HIGHGATE* FAIR 27 26 96 CALM 30.35R  
NEWPORT* FAIR 29 24 81 NW6 30.31S WCI 23  
BENNINGTON CLEAR 34 20 56 N6 30.27R WCI 29  
LAKE EDEN* N/A 27 N/A N/A N1 N/A  
 
_____LAKE CHAMPLAIN_____  
 
 
CITY SKY/WX TMP DP RH WIND PRES REMARKS
 
BURTON ISLAND* N/A 36 28 75 N1 N/A  
COLCHESTER RF* N/A 37 30 75 N14 N/A WCI 29  
DIAMOND ISL* N/A 37 30 75 NW13G22 N/A WCI 29  
 

 
 
NYZ007-026>031-035-052-083-087-090300-  
_____NORTHERN NEW YORK_____  
 
 
CITY SKY/WX TMP DP RH WIND PRES REMARKS
 
PLATTSBURGH CLOUDY 32 27 81 NW3 30.34R  
SARANAC LAKE CLOUDY 30 24 78 VRB3 30.28R  
MASSENA CLEAR 28 26 92 NW7 30.39R WCI 21  
OGDENSBURG* CLOUDY 32 28 86 N7 30.37R WCI 26  
POTSDAM* CLOUDY 32 28 86 NW6 30.37R WCI 26  
WATERTOWN CLOUDY 35 29 78 N7 30.38R WCI 29  
FT DRUM CLOUDY 33 30 89 N5 30.34R WCI 28  
ALBANY CLEAR 35 27 72 NW6 30.31R WCI 30  
GLENS FALLS CLEAR 32 27 81 CALM 30.31S  
 

 
NHZ002-005-011-090300-  
_____NEW HAMPSHIRE_____  
 
 
CITY SKY/WX TMP DP RH WIND PRES REMARKS
 
LEBANON MOCLDY 36 24 62 N6 30.27R WCI 31  
KEENE CLOUDY 37 27 67 N9 N/A WCI 30  
MT WASHINGTON MOCLDY 16 5 62 N26G44 N/A WCI -3  
PLYMOUTH FAIR 34 26 71 W6 30.24S WCI 29  
WHITEFIELD CLEAR 27 23 85 NW6 30.26S WCI 20  
 

 
 
_____REGIONAL QUEBEC LOCATIONS_____  
 
 
CITY SKY/WX TMP DP RH WIND PRES REMARKS
 
MONTREAL PTCLDY 32 23 69 N8 30.36R WCI 25  
QUEBEC CITY CLEAR 25 14 63 N2 30.30S  
SHERBROOKE CLEAR 27 23 86 NW6 30.29R WCI 20  
 
_____REGIONAL ONTARIO LOCATIONS_____  
 
 
CITY SKY/WX TMP DP RH WIND PRES REMARKS
 
OTTAWA CLEAR 28 23 80 NW10 30.39R WCI 19  
 
______KEY______  
VSB - VISIBILITY IN MILES  
WCI - WIND CHILL INDEX  
HX - HEAT INDEX  

 
NNNN  
 
 
CLICK HERE TO GO TO PREVIOUS BULLETINS.

The Nexlab VT Page
The Nexlab NY Page Main Text Page